VE3ZEB-1 Weather Reports


Display with metric or nautical units.
time (UTC)temp
F
wind
direction
speed
MPH
gust
MPH
rain 1hr
in
rain 24hr
in
rain mn
in
humidity
%
barometer
mb
20260901022024 71 0 2.0 4.0 0.00 0.60 0.60 99 679.9
20260901021025 71 6 2.0 5.0 0.00 0.60 0.60 99 680.0
20260901020045 71 4 2.0 3.0 0.00 0.60 0.60 99 680.0
20260901015025 71 357 2.0 3.0 0.00 0.60 0.60 99 680.0
20260901013925 71 358 2.0 4.0 0.00 0.60 0.60 99 680.0
20260901013046 71 351 2.0 3.0 0.00 0.61 0.60 99 680.0
20260901011930 71 355 2.0 3.0 0.00 0.64 0.60 99 680.0
20260901010926 71 344 2.0 3.0 0.00 0.65 0.60 99 680.0
20260901010026 71 347 2.0 3.0 0.00 0.67 0.60 99 680.0
20260901005026 72 349 3.0 5.0 0.00 0.70 0.60 99 680.0
20260901004026 72 353 3.0 4.0 0.00 0.76 0.60 99 680.0
20260901002926 72 0.0 0.0 0.00 0.77 0.60 99 680.0
20260901002026 72 6 3.0 6.0 0.00 0.81 0.60 99 680.0
20260901000927 72 3 3.0 5.0 0.00 0.82 0.60 99 680.0
20260831235927 73 5 3.0 6.0 0.00 0.82 0.60 99 680.0
20260831234927 73 14 4.0 5.0 0.00 0.83 0.60 99 680.0
20260831233932 73 1 3.0 5.0 0.00 0.83 0.60 99 680.0
20260831233027 73 353 3.0 4.0 0.00 0.84 0.60 99 680.0
20260831232027 73 19 3.0 5.0 0.00 0.84 0.60 99 680.0
20260831230927 73 360 2.0 4.0 0.00 0.84 0.60 99 680.0
20260831230027 73 355 2.0 3.0 0.00 0.85 0.60 99 680.0
20260831225047 74 1 2.0 4.0 0.00 0.85 0.60 99 680.0
20260831223928 74 9 2.0 4.0 0.00 0.85 0.60 99 680.0
20260831223028 74 346 2.0 2.0 0.00 0.85 0.60 99 680.0
20260831221943 74 343 1.0 3.0 0.00 0.86 0.60 99 680.0
20260831220948 74 3 1.0 3.0 0.00 0.88 0.60 99 680.0
20260831220028 74 357 1.0 3.0 0.00 0.88 0.60 99 680.0
20260831214928 74 346 2.0 3.0 0.00 0.88 0.60 99 680.0
20260831213929 75 359 1.0 3.0 0.00 0.90 0.60 99 680.0
20260831212933 75 336 2.0 3.0 0.00 0.93 0.60 99 680.0
20260831211929 75 353 3.0 6.0 0.00 0.95 0.60 99 680.0
20260831210929 74 332 2.0 3.0 0.00 0.95 0.60 99 680.0
20260831205934 74 319 3.0 3.0 0.00 0.96 0.60 99 680.0
20260831205049 73 325 1.0 2.0 0.00 0.97 0.60 99 680.0
20260831204049 73 331 2.0 3.0 0.00 0.98 0.60 99 680.0
20260831203029 73 351 1.0 3.0 0.01 0.98 0.60 99 680.0
20260831202030 73 14 1.0 2.0 0.01 1.00 0.60 99 680.0
20260831201029 74 341 0.0 1.0 0.01 1.02 0.60 99 680.0
20260831195930 74 360 1.0 3.0 0.01 1.07 0.60 99 680.0
20260831194930 74 13 1.0 3.0 0.01 1.08 0.60 99 680.0
20260831194030 74 115 1.0 3.0 0.01 1.10 0.60 99 680.0
20260831192931 74 15 1.0 3.0 0.01 1.09 0.60 99 680.0
20260831191930 74 80 1.0 2.0 0.01 1.09 0.60 99 680.0
20260831191000 74 57 1.0 2.0 0.01 1.13 0.60 99 680.0
20260831185931 74 112 1.0 2.0 0.00 1.14 0.59 99 680.0
20260831185031 75 121 1.0 3.0 0.00 1.14 0.59 99 680.0
20260831184016 75 131 2.0 4.0 0.00 1.15 0.59 99 680.0
20260831183016 74 144 2.0 3.0 0.00 1.15 0.59 99 680.0
20260831181931 74 154 2.0 3.0 0.00 1.15 0.59 99 680.0
20260831180931 74 152 1.0 3.0 0.00 1.15 0.59 99 680.0
20260831175931 73 0.0 0.0 0.01 1.16 0.59 99 680.0
20260831174946 73 104 0.0 1.0 0.01 1.16 0.59 99 680.0
20260831173932 73 59 0.0 1.0 0.03 1.17 0.59 99 680.0
20260831173016 72 245 0.0 1.0 0.03 1.17 0.59 99 680.0
20260831171932 72 0.0 0.0 0.03 1.18 0.59 99 680.0
20260831171017 72 142 0.0 1.0 0.05 1.20 0.59 99 680.0
20260831170017 73 132 0.0 2.0 0.07 1.24 0.59 99 680.0
20260831165017 73 154 2.0 4.0 0.08 1.30 0.58 99 680.0
20260831164017 73 124 2.0 5.0 0.06 1.36 0.56 99 680.0
20260831163018 74 125 3.0 5.0 0.07 1.42 0.56 99 680.0
20260831162038 74 124 4.0 6.0 0.06 1.46 0.55 99 680.0
20260831161038 75 129 2.0 4.0 0.04 1.47 0.54 99 680.0
20260831160019 75 114 3.0 6.0 0.02 1.46 0.51 99 680.1
20260831154933 76 98 2.0 5.0 0.01 1.45 0.50 99 680.1
20260831153933 76 100 2.0 5.0 0.01 1.45 0.50 99 680.1
20260831152933 77 95 1.0 3.0 0.00 1.44 0.49 99 680.1
20260831152011 77 81 1.0 3.0 0.00 1.44 0.49 99 680.1
20260831151019 77 74 2.0 4.0 0.00 1.44 0.49 99 680.1
20260831150019 76 48 2.0 5.0 0.00 1.44 0.49 99 680.0
20260831145034 75 58 2.0 4.0 0.00 1.45 0.49 99 680.0
20260831144019 75 51 2.0 4.0 0.00 1.46 0.49 99 680.0
20260831143019 74 76 2.0 4.0 0.00 1.46 0.49 99 680.0
20260831142019 73 20 2.0 5.0 0.00 1.46 0.49 99 680.0
20260831141020 73 18 3.0 5.0 0.00 1.46 0.49 99 680.0
20260831140100 72 24 4.0 7.0 0.00 1.46 0.49 99 680.0
20260831134935 71 28 3.0 6.0 0.00 1.47 0.49 99 680.0
20260831133955 71 11 4.0 8.0 0.00 1.47 0.49 99 679.9
20260831133020 70 248 0.0 1.0 0.02 1.47 0.49 99 679.9
20260831131956 69 347 0.0 1.0 0.03 1.48 0.49 99 679.9
20260831131021 69 221 1.0 2.0 0.03 1.50 0.49 99 679.9
20260831130021 68 234 1.0 2.0 0.03 1.53 0.49 99 679.9
20260831125021 68 206 1.0 2.0 0.03 1.55 0.49 99 679.9
20260831124021 68 261 1.0 2.0 0.04 1.60 0.49 99 679.9
20260831123021 68 359 3.0 8.0 0.03 1.60 0.47 99 679.9
20260831121936 68 359 3.0 5.0 0.06 1.59 0.47 99 679.9
20260831121021 68 12 2.0 5.0 0.15 1.59 0.47 99 679.9
20260831120021 68 324 0.0 1.0 0.21 1.59 0.46 99 679.9
20260831115022 68 337 1.0 2.0 0.23 1.59 0.46 99 679.9
20260831114022 68 325 0.0 2.0 0.23 1.58 0.45 99 679.9
20260831113022 67 243 1.0 1.0 0.23 1.57 0.44 99 679.9
20260831111957 67 284 1.0 1.0 0.20 1.54 0.40 99 679.9
20260831110937 67 5 4.0 5.0 0.14 1.45 0.32 99 679.9
20260831110022 67 83 1.0 4.0 0.08 1.39 0.26 99 679.9
20260831105022 67 11 4.0 7.0 0.05 1.36 0.23 99 679.9
20260831104022 67 16 2.0 6.0 0.03 1.35 0.21 99 679.9
20260831103022 67 13 2.0 4.0 0.03 1.35 0.21 99 679.9
20260831102022 67 337 1.0 2.0 0.04 1.33 0.20 99 679.9
20260831100937 67 347 2.0 2.0 0.02 1.31 0.18 99 679.9
20260831095938 67 340 2.0 2.0 0.02 1.31 0.18 99 679.9
20260831095023 67 344 2.0 3.0 0.02 1.31 0.18 99 679.9
20260831093938 67 330 1.0 2.0 0.02 1.31 0.18 99 679.9
20260831093024 67 346 1.0 2.0 0.02 1.31 0.18 99 679.9
20260831092019 67 330 2.0 2.0 0.00 1.30 0.16 99 679.9
20260831090959 67 337 2.0 2.0 0.00 1.30 0.16 99 679.9
20260831090024 67 335 1.0 2.0 0.00 1.30 0.16 99 679.9
20260831085024 66 345 2.0 2.0 0.00 1.30 0.16 99 679.9
20260831084025 66 324 1.0 2.0 0.00 1.30 0.16 99 679.9
20260831082939 66 326 0.0 1.0 0.00 1.30 0.16 99 679.9
20260831081939 66 247 1.0 3.0 0.04 1.30 0.16 99 679.9
20260831081024 66 222 1.0 2.0 0.05 1.30 0.16 99 679.9
20260831080025 66 351 2.0 3.0 0.05 1.30 0.16 99 679.9
20260831074940 66 352 2.0 3.0 0.05 1.30 0.16 99 679.9
20260831073940 66 342 1.0 2.0 0.05 1.30 0.16 99 679.9
20260831073021 66 334 2.0 3.0 0.09 1.30 0.16 99 679.9
20260831072025 66 8 3.0 5.0 0.12 1.25 0.12 99 679.9
20260831071025 66 357 3.0 4.0 0.11 1.25 0.11 99 679.8
20260831065940 66 0 3.0 6.0 0.11 1.25 0.11 99 679.8
20260831064940 65 5 5.0 7.0 0.11 1.25 0.11 99 679.8
20260831064046 65 357 2.0 5.0 0.11 1.25 0.11 99 679.8
20260831062941 65 16 4.0 6.0 0.07 1.20 0.07 99 679.8
20260831061941 65 354 3.0 5.0 0.00 1.13 0.00 99 679.8
20260831061026 65 12 3.0 6.0 0.00 1.13 0.00 99 679.8
20260831055941 65 357 2.0 4.0 0.00 1.13 0.00 99 679.8
20260831055026 65 5 2.0 5.0 0.00 1.13 0.00 99 679.8
20260831054027 64 1 2.0 3.0 0.00 1.13 0.00 99 679.8
20260831053026 64 13 4.0 8.0 0.00 1.13 0.00 99 679.8
20260831052027 64 6 2.0 4.0 0.00 1.13 0.00 99 679.8
20260831050942 64 5 3.0 5.0 0.00 1.13 0.00 99 679.8
20260831050027 64 16 4.0 6.0 0.00 1.13 0.00 99 679.8
20260831044942 64 16 3.0 7.0 0.00 1.13 0.00 99 679.8
20260831044028 64 10 4.0 13.0 0.00 1.13 0.00 99 679.8
20260831042942 64 10 3.0 6.0 0.00 1.13 0.00 99 679.8
20260831042028 64 19 3.0 5.0 0.00 1.13 0.00 99 679.8
20260831035949 64 6 3.0 6.0 0.00 1.13 0.00 99 679.8
20260831034949 64 355 2.0 3.0 0.00 1.13 1.13 99 679.8
20260831034016 64 357 2.0 5.0 0.00 1.13 1.13 99 679.8
20260831033017 64 341 2.0 3.0 0.00 1.13 1.13 99 679.8
20260831032017 64 341 2.0 4.0 0.00 1.13 1.13 99 679.8
20260831030944 64 342 2.0 2.0 0.00 1.13 1.13 99 679.8
20260831030049 64 345 2.0 3.0 0.00 1.13 1.13 99 679.8
20260831024944 64 336 2.0 3.0 0.00 1.13 1.13 99 679.8
20260831023944 64 0.0 0.0 0.00 1.13 1.13 99 679.8
20260831023017 64 346 2.0 5.0 0.01 1.13 1.13 99 679.8